Terug naar catalogus

TITAN 3C TRANSTAGE DEB

LostHEO
NORAD 34170·DEBRIS·🇺🇸 United States

Gelanceerd Dec 21, 1965 vanaf Cape Canaveral Space Force Station

Loading…

Volgende Passages (komende 24 uur)

TLE

VerouderdSource: Space-Track

Epoch: Jul 3, 2026, 09:34 UTC

1 34170U 65108DD  26184.39916251  .00000304  00000-0  18062-2 0  9998
2 34170  25.5507  70.4273 5786161 238.0899  52.8001  4.07743777 80838

Volg TITAN 3C TRANSTAGE DEB in realtime met AllMySat

Download on the App Store